This is the latest recevied weather packets stored in our database for station/object W6SNO-1. If no packets are shown the sender has not sent any weather packets the latest 10 day(s).
| Time | Temp. | Humidity | Pressure | Rain* | Wind** | Luminosity | Snow |
|---|---|---|---|---|---|---|---|
| 1777912501 | 14.44° C | 65% | 1015.1 hPa | 0 mm | - | 539 W/m² | - |
| 1777912198 | 14.44° C | 67% | 1015.1 hPa | 0 mm | - | 133 W/m² | - |
| 1777911894 | 14.44° C | 67% | 1015.3 hPa | 0 mm | - | 78 W/m² | - |
| 1777911591 | 13.89° C | 67% | 1014.9 hPa | 0 mm | - | 76 W/m² | - |
| 1777911286 | 13.89° C | 69% | 1015.1 hPa | 0 mm | - | 68 W/m² | - |
| 1777910984 | 13.33° C | 70% | 1015.3 hPa | 0 mm | - | 62 W/m² | - |
| 1777910682 | 13.33° C | 71% | 1015.2 hPa | 0 mm | - | 54 W/m² | - |
| 1777910378 | 13.33° C | 72% | 1015.1 hPa | 0 mm | - | 50 W/m² | - |
| 1777910075 | 13.33° C | 72% | 1015.2 hPa | 0 mm | - | 49 W/m² | - |
| 1777909773 | 12.78° C | 75% | 1015.2 hPa | 0 mm | - | 48 W/m² | - |
| 1777909469 | 12.78° C | 74% | 1015.2 hPa | 0 mm | - | 46 W/m² | - |
| 1777909167 | 12.78° C | 76% | 1015.3 hPa | 0 mm | - | 45 W/m² | - |
| 1777908865 | 12.22° C | 76% | 1015.2 hPa | 0 mm | - | 44 W/m² | - |
| 1777908561 | 12.22° C | 77% | 1015.3 hPa | 0 mm | - | 42 W/m² | - |
| 1777908258 | 11.67° C | 78% | 1015.4 hPa | 0 mm | - | 41 W/m² | - |
| 1777907955 | 11.67° C | 78% | 1015.3 hPa | 0 mm | - | 40 W/m² | - |
| 1777907650 | 11.67° C | 79% | 1015.1 hPa | 0 mm | - | 38 W/m² | - |
| 1777907346 | 11.11° C | 80% | 1015.4 hPa | 0 mm | - | 37 W/m² | - |
| 1777907042 | 11.11° C | 81% | 1015.5 hPa | 0 mm | - | 36 W/m² | - |
| 1777906740 | 10.56° C | 82% | 1015 hPa | 0 mm | - | 35 W/m² | - |
| 1777906436 | 10.56° C | 83% | 1015.3 hPa | 0 mm | - | 33 W/m² | - |
| 1777906133 | 10° C | 84% | 1015.2 hPa | 0 mm | - | 32 W/m² | - |
| 1777905829 | 10° C | 84% | 1015.3 hPa | 0 mm | - | 31 W/m² | - |
| 1777905527 | 10° C | 85% | 1015.1 hPa | 0 mm | - | 30 W/m² | - |
| 1777905223 | 9.44° C | 86% | 1015.1 hPa | 0 mm | - | 29 W/m² | - |
* Rain latest hour (hover to see other rain measurements)
** Current wind speed in m/s (hover to see current wind gust speed)